Satellite: ALMASAT-1
Catalog number: 38078

Epoch time:      12215.44514924
Element set:     439
Inclination:      069.4874 deg
RA of node:       212.3731 deg

Eccentricity: 0.0753127
Arg of perigee: 190.9032 deg
Mean anomaly: 167.4891 deg
Mean motion: 14.10627630 rev/day

Decay rate:     1.5564e-04 rev/day^2
Epoch rev:            2407
Checksum:              301

Satellite: XATCOBEO
Catalog number: 38082

Epoch time:      12215.40065304
Element set:     443
Inclination:      069.4868 deg
RA of node:       209.3402 deg

Eccentricity: 0.0723252
Arg of perigee: 189.2776 deg
Mean anomaly: 169.4266 deg
Mean motion: 14.19500754 rev/day

Decay rate:     3.4248e-04 rev/day^2
Epoch rev:            2414
Checksum:              296

/EX
SB KEPS @ AMSAT $ORB12215.W
Orbital Elements 12215.WEATHER

HR AMSAT ORBITAL ELEMENTS FOR WEATHER SATELLITES FROM WA5QGD FORT WORTH,TX August 2, 2012 Send SUBSCRIBE KEPS/UNSUBSCRIBE KEPS to majordomo@amsat.org only BID: ORB12215.W
TO ALL RADIO AMATEURS BT

Satellite: NOAA-10
Catalog number: 16969

Epoch time:      12215.76974074
Element set:      14
Inclination:      098.5788 deg
RA of node:       243.9908 deg

Eccentricity: 0.0013104
Arg of perigee: 097.5080 deg
Mean anomaly: 262.7605 deg
Mean motion: 14.27566624 rev/day

Decay rate:        7.3e-07 rev/day^2
Epoch rev:           34651
Checksum:              321

Satellite: NOAA-11
Catalog number: 19531

Epoch time:      12215.74421476
Element set:       9
Inclination:      098.7325 deg
RA of node:       299.9230 deg

Eccentricity: 0.0011989
Arg of perigee: 090.2868 deg
Mean anomaly: 269.9687 deg
Mean motion: 14.14973535 rev/day

Decay rate:      -2.08e-06 rev/day^2
Epoch rev:           23109
Checksum:              330

Satellite: NOAA-12
Catalog number: 21263

Epoch time:      12215.79413433
Element set:     495
Inclination:      098.7255 deg
RA of node:       237.2369 deg

Eccentricity: 0.0014810
Arg of perigee: 066.6330 deg
Mean anomaly: 293.6404 deg
Mean motion: 14.25509554 rev/day

Decay rate:        3.1e-07 rev/day^2
Epoch rev:           10319
Checksum:              283

Satellite: MET-3/5
Catalog number: 21655
Epoch time: 12214.42587172
Element set: 0001

Inclination:      082.5574 deg
RA of node:       120.2363 deg

Eccentricity: 0.0012915
Arg of perigee: 204.8054 deg
Mean anomaly: 155.2449 deg
Mean motion: 13.17043851 rev/day

Decay rate:      -3.97e-06 rev/day^2
Epoch rev:           00760
Checksum:              269

Satellite: MET-2/21
Catalog number: 22782

Epoch time:      12215.79722648
Element set:     488
Inclination:      082.5482 deg
RA of node:       355.5243 deg

Eccentricity: 0.0023297
Arg of perigee: 025.3987 deg
Mean anomaly: 334.8314 deg
Mean motion: 13.83686231 rev/day

Decay rate:        2.2e-07 rev/day^2
Epoch rev:           95561
Checksum:              323

Satellite: OKEAN-4
Catalog number: 23317

Epoch time:      12215.89856756
Element set:     959
Inclination:      082.5417 deg
RA of node:       347.5270 deg

Eccentricity: 0.0020786
Arg of perigee: 193.2306 deg
Mean anomaly: 166.8367 deg
Mean motion: 14.83870687 rev/day

Decay rate:      1.010e-05 rev/day^2
Epoch rev:           96173
Checksum:              336

Satellite: NOAA-14
Catalog number: 23455

Epoch time:      12215.82329329
Element set:     975
Inclination:      098.8255 deg
RA of node:       298.7348 deg

Eccentricity: 0.0009372
Arg of perigee: 178.3696 deg
Mean anomaly: 181.7509 deg
Mean motion: 14.13864780 rev/day

Decay rate:       -3.0e-08 rev/day^2
Epoch rev:           90738
Checksum:              349

Satellite: NOAA-15
Catalog number: 25338

Epoch time:      12215.53621097
Element set:     352
Inclination:      098.6924 deg
RA of node:       202.0158 deg

Eccentricity: 0.0010321
Arg of perigee: 339.3378 deg
Mean anomaly: 020.7362 deg
Mean motion: 14.25100571 rev/day

Decay rate:        6.6e-07 rev/day^2
Epoch rev:           73945
Checksum:              277

Satellite: RESURS
Catalog number: 25394

Epoch time:      12215.90754645
Element set:     151
Inclination:      098.3240 deg
RA of node:       201.6935 deg

Eccentricity: 0.0002287
Arg of perigee: 089.1534 deg
Mean anomaly: 270.9909 deg
Mean motion: 14.24291223 rev/day

Decay rate:        1.6e-07 rev/day^2
Epoch rev:           73105
Checksum:              281

Satellite: FENGYUN1
Catalog number: 25730
Epoch time: 12214.92501652
Element set: 0672

Inclination:      098.8475 deg
RA of node:       173.1189 deg

Eccentricity: 0.0017355
Arg of perigee: 233.3009 deg
Mean anomaly: 126.6565 deg
Mean motion: 14.09684193 rev/day

Decay rate:      +7.15e-06 rev/day^2
Epoch rev:           68105
Checksum:              305

Satellite: OKEAN-0
Catalog number: 25860
Epoch time: 12214.93901070
Element set: 0718

Inclination:      097.9397 deg
RA of node:       176.6569 deg

Eccentricity: 0.0001767
Arg of perigee: 077.5057 deg
Mean anomaly: 282.6350 deg
Mean motion: 14.74251942 rev/day

Decay rate:      +3.08e-06 rev/day^2
Epoch rev:           70131
Checksum:              312

Satellite: NOAA-16
Catalog number: 26536

Epoch time:      12215.49700179
Element set:     840
Inclination:      099.0916 deg
RA of node:       258.3285 deg

Eccentricity: 0.0009970
Arg of perigee: 316.8825 deg
Mean anomaly: 043.1571 deg
Mean motion: 14.12764003 rev/day

Decay rate:       -5.9e-07 rev/day^2
Epoch rev:           61157
Checksum:              309

Satellite: NOAA-17
Catalog number: 27453

Epoch time:      12215.66360015
Element set:     788
Inclination:      098.3345 deg
RA of node:       240.3493 deg

Eccentricity: 0.0012141
Arg of perigee: 024.9970 deg
Mean anomaly: 335.1788 deg
Mean motion: 14.24465878 rev/day

Decay rate:       3.07e-06 rev/day^2
Epoch rev:           52537
Checksum:              313

Satellite: NOAA-18
Catalog number: 28654

Epoch time:      12215.63204521
Element set:     270
Inclination:      099.0487 deg
RA of node:       174.1162 deg

Eccentricity: 0.0015012
Arg of perigee: 027.0294 deg
Mean anomaly: 333.1640 deg
Mean motion: 14.11679994 rev/day

Decay rate:        2.6e-07 rev/day^2
Epoch rev:           37111
Checksum:              272

Satellite: NOAA-19
Catalog number: 33591

Epoch time:      12215.65031028
Element set:     459
Inclination:      098.8646 deg
RA of node:       154.8682 deg

Eccentricity: 0.0013128
Arg of perigee: 249.9340 deg
Mean anomaly: 110.0408 deg
Mean motion: 14.11366849 rev/day

Decay rate:        2.4e-07 rev/day^2
Epoch rev:           17956
Checksum:              308

/EX
SB KEPS @ AMSAT $ORB12215.M
Orbital Elements 12215.MISC

HR AMSAT ORBITAL ELEMENTS FOR MANNED AND MISCELLANEOUS SATELLITES FROM WA5QGD FORT WORTH,TX August 2, 2012 Send SUBSCRIBE KEPS/UNSUBSCRIBE KEPS to majordomo@amsat.org only BID: ORB12215.M
TO ALL RADIO AMATEURS BT

Satellite: HUBBLE
Catalog number: 20580

Epoch time:      12215.15326402
Element set:      47
Inclination:      028.4693 deg
RA of node:       202.7095 deg

Eccentricity: 0.0003583
Arg of perigee: 184.7121 deg
Mean anomaly: 175.3444 deg
Mean motion: 15.02654014 rev/day

Decay rate:      1.229e-05 rev/day^2
Epoch rev:            2165
Checksum:              252

Satellite: ISS
Catalog number: 25544

Epoch time:      12215.90472985
Element set:      46
Inclination:      051.6396 deg
RA of node:       249.0025 deg

Eccentricity: 0.0001145
Arg of perigee: 009.7490 deg
Mean anomaly: 048.1252 deg
Mean motion: 15.54918093 rev/day

Decay rate:     2.1088e-04 rev/day^2
Epoch rev:           78528
Checksum:              300

Satellite: CO-58
Catalog number: 28895
Epoch time: 12214.63737407
Element set: 0241

Inclination:      097.9080 deg
RA of node:       078.8999 deg

Eccentricity: 0.0017682
Arg of perigee: 012.9777 deg
Mean anomaly: 347.1933 deg
Mean motion: 14.60690778 rev/day

Decay rate:      +6.19e-06 rev/day^2
Epoch rev:           36029
Checksum:              365

Satellite: FALCON
Catalog number: 30776

Epoch time:      12215.74184904
Element set:     404
Inclination:      035.4341 deg
RA of node:       352.4229 deg

Eccentricity: 0.0001526
Arg of perigee: 045.2614 deg
Mean anomaly: 314.8228 deg
Mean motion: 15.07845874 rev/day

Decay rate:      3.327e-05 rev/day^2
Epoch rev:           29728
Checksum:              290

Satellite: MAST
Catalog number: 31126
Epoch time: 12214.97975477
Element set: 0525

Inclination:      097.8728 deg
RA of node:       223.4033 deg

Eccentricity: 0.0093421
Arg of perigee: 328.6730 deg
Mean anomaly: 030.8923 deg
Mean motion: 14.54212808 rev/day

Decay rate:      +5.35e-06 rev/day^2
Epoch rev:           28092
Checksum:              301

Satellite: CAPE1
Catalog number: 31130
Epoch time: 12214.91617364
Element set: 0533

Inclination:      097.8833 deg
RA of node:       219.6993 deg

Eccentricity: 0.0101232
Arg of perigee: 342.3396 deg
Mean anomaly: 017.4315 deg
Mean motion: 14.53009217 rev/day

Decay rate:      +8.25e-06 rev/day^2
Epoch rev:           28041
Checksum:              277

Satellite: COMPASS
Catalog number: 32787
Epoch time: 12214.64682246
Element set: 0372

Inclination:      097.7966 deg
RA of node:       274.9724 deg

Eccentricity: 0.0014093
Arg of perigee: 272.8142 deg
Mean anomaly: 087.1455 deg
Mean motion: 14.84156106 rev/day

Decay rate:     +1.366e-05 rev/day^2
Epoch rev:           23055
Checksum:              316

Satellite: AAUSAT2
Catalog number: 32788

Epoch time:      12215.61745642
Element set:     363
Inclination:      097.7992 deg
RA of node:       276.3295 deg

Eccentricity: 0.0013281
Arg of perigee: 270.5713 deg
Mean anomaly: 089.3962 deg
Mean motion: 14.84497982 rev/day

Decay rate:      2.225e-05 rev/day^2
Epoch rev:           23072
Checksum:              331

